Regional Weather Roundup
Issued by NWS

Home | Current Version | Previous Version | Text Only | Print | Product List | Glossary Off
Versions: 1 2 3 4 5 6 7 8 9 10 11 12 13 14 15 16 17 18 19 20 21 22 23 24 25 26 27 28 29 30 31 32 33 34 35 36 37 38 39 40 41 42 43 44 45 46 47 48 49 50

000
ASUS44 KMEG 291110
RWRTN
TENNESSEE HOURLY STATE WEATHER ROUNDUP
NATIONAL WEATHER SERVICE MEMPHIS TN
600 AM CDT SUN MAY 29 2016

TNZ002-004-019-021-049-052-054-088>092-291200-
WEST TENNESSEE

CITY           SKY/WX    TMP DP  RH WIND       PRES   REMARKS
MEMPHIS INTL   PTCLDY    68  65  90 S5        30.10R
NWS MEMPHIS      N/A     66 N/A N/A MISG        N/A
JACKSON        CLOUDY    68  66  93 SW7       30.11R
DYERSBURG      CLEAR     64  64 100 CALM      30.09R
UNION CITY     PTCLDY    64  64 100 CALM      30.09R
PARIS          PTCLDY    63  63 100 CALM      30.11R
LEXINGTON      CLEAR     63  63 100 CALM      30.10R
$$

TNZ008-025-027-028-033-062-065-066-291200-
NORTH MIDDLE TENNESSEE

CITY           SKY/WX    TMP DP  RH WIND       PRES   REMARKS
NASHVILLE      PTCLDY    65  62  90 CALM      30.11R FOG
CLARKSVILLE    CLEAR     63  62  97 SE3       30.09R
SMYRNA         CLEAR     64  64 100 CALM      30.13R FOG
COOKEVILLE     CLEAR     63  63 100 CALM      30.13R
CROSSVILLE     CLOUDY    63  59  87 CALM      30.18R
$$

TNZ061-075-076-078-094-096-097-291200-
SOUTH MIDDLE TENNESSEE

CITY           SKY/WX    TMP DP  RH WIND       PRES   REMARKS
FAYETTEVILLE   PTCLDY    64  63  94 CALM      30.13R
TULLAHOMA      CLEAR     63  63 100 CALM      30.15R
WINCHESTER     CLEAR     63  61  94 CALM      30.14R
MCMINNVILLE    CLEAR     63  63 100 CALM      30.14R
COLUMBIA       CLEAR    N/A N/A N/A CALM      30.10S
SHELBYVILLE    CLEAR     64  64 100 CALM      30.14R
$$

TNZ017-018-042-046-047-291200-
NORTHEAST TENNESSEE

CITY           SKY/WX    TMP DP  RH WIND       PRES   REMARKS
TRI CITIES     CLOUDY    64  59  83 CALM      30.17R
$$

TNZ012-013-036-069-073-074-291200-
CENTRAL EAST TENNESSEE

CITY           SKY/WX    TMP DP  RH WIND       PRES   REMARKS
KNOXVILLE      CLOUDY    70  62  76 SW6       30.13R
OAK RIDGE      CLOUDY    67  64  90 CALM      30.15R
GATLINBURG     CLOUDY    64  61  88 CALM      30.15R
$$

TNZ083-085-099-291200-
SOUTHEAST TENNESSEE

CITY           SKY/WX    TMP DP  RH WIND       PRES   REMARKS
CHATTANOOGA    MOCLDY    65  62  90 CALM      30.13R
$$

SKY/WX REPORTED AS FAIR MEANS FEW OR NO CLOUDS BELOW
12 THOUSAND FEET.





USA.gov is the U.S. government's official web portal to all federal, state and local government web resources and services.